CW5306 Weather Reports


time (UTC)temp
C
wind
direction
speed
KPH
gust
KPH
rain 1hr
cm
rain 24hr
cm
rain mn
cm
humidity
%
barometer
mb
20260503191105 23 94 9.7 27.4 0.00 0.00 0.00 80 1018.6
20260503190605 23 68 19.3 30.6 0.00 0.00 0.00 80 1018.6
20260503190556 23 11 12.9 32.2 0.00 0.00 0.00 81 1018.5
20260503185555 24 68 14.5 32.2 0.00 0.00 0.00 81 1018.5
20260503185041 24 92 16.1 24.1 0.00 0.00 0.00 81 1018.5
20260503184529 24 145 1.6 22.5 0.00 0.00 0.00 81 1018.7
20260503184029 24 93 4.8 22.5 0.00 0.00 0.00 80 1018.6
20260503183530 24 113 8.0 25.7 0.00 0.00 0.00 80 1018.4
20260503183030 24 115 8.0 25.7 0.00 0.00 0.00 81 1018.4
20260503182536 24 51 12.9 32.2 0.00 0.00 0.00 79 1018.3
20260503182530 24 83 14.5 32.2 0.00 0.00 0.00 80 1018.5
20260503181529 24 78 14.5 27.4 0.00 0.00 0.00 78 1018.4
20260503181250 25 85 16.1 25.7 0.00 0.00 0.00 77 1018.2
20260503180748 25 55 9.7 25.7 0.00 0.00 0.00 77 1018.3
20260503180024 24 73 6.4 25.7 0.00 0.00 0.00 79 1018.3
20260503180018 25 47 9.7 22.5 0.00 0.00 0.00 78 1018.3
20260503175018 24 83 12.9 25.7 0.00 0.00 0.00 80 1018.1
20260503174519 23 81 12.9 24.1 0.00 0.00 0.00 79 1018.1
20260503174017 23 108 8.0 24.1 0.00 0.00 0.00 80 1017.9
20260503173505 23 82 9.7 22.5 0.00 0.00 0.00 80 1018.1
20260503173005 23 39 9.7 22.5 0.00 0.00 0.00 80 1017.9
20260503172506 23 71 9.7 20.9 0.00 0.00 0.00 80 1017.8
20260503172006 23 82 9.7 22.5 0.00 0.00 0.00 80 1017.8
20260503171506 23 110 8.0 22.5 0.00 0.00 0.00 80 1017.7
20260503171006 23 47 12.9 16.1 0.00 0.00 0.00 80 1017.7
20260503170506 23 117 6.4 20.9 0.00 0.00 0.00 80 1017.6
20260503150955 22 109 4.8 16.1 0.00 0.00 0.00 81 1016.9
20260503150454 22 142 9.7 16.1 0.00 0.00 0.00 82 1017.0
20260503140212 22 102 8.0 22.5 0.00 0.00 0.00 83 1017.2
20260503131213 22 72 9.7 22.5 0.00 0.00 0.00 83 1017.0
20260503130713 22 70 1.6 16.1 0.00 0.00 0.00 83 1016.9
20260503110442 23 89 11.3 22.5 0.00 0.00 0.00 81 1017.9
20260503090441 23 103 12.9 22.5 0.00 0.00 0.00 79 1017.8
20260503090213 23 100 6.4 22.5 0.00 0.00 0.00 80 1018.1
20260503081447 23 86 6.4 22.5 0.00 0.00 0.00 78 1017.6
20260503081441 23 118 8.0 22.5 0.00 0.00 0.00 78 1017.8
20260503080442 23 96 16.1 24.1 0.00 0.00 0.00 78 1017.8
20260503072942 23 99 12.9 22.5 0.00 0.00 0.00 79 1017.5
20260503072443 23 105 4.8 22.5 0.00 0.00 0.00 78 1017.3
20260503071941 23 103 14.5 25.7 0.00 0.00 0.00 79 1017.3
20260503071442 23 26 6.4 25.7 0.00 0.00 0.00 79 1017.3
20260503070941 23 85 14.5 25.7 0.00 0.00 0.00 79 1017.1
20260503070441 23 46 11.3 25.7 0.00 0.00 0.00 78 1017.3
20260503054941 23 120 16.1 24.1 0.00 0.00 0.00 78 1016.3
20260503054447 23 77 9.7 25.7 0.00 0.00 0.00 78 1016.1
20260503054441 23 48 9.7 25.7 0.00 0.00 0.00 78 1016.4
20260503053443 23 112 12.9 25.7 0.00 0.00 0.00 77 1016.1
20260503052941 23 54 11.3 25.7 0.00 0.00 0.00 77 1015.9
20260503052712 23 76 12.9 20.9 0.00 0.00 0.00 77 1015.9
20260503051941 23 115 9.7 20.9 0.00 0.00 0.00 78 1015.8
20260503051441 23 98 16.1 24.1 0.00 0.00 0.00 77 1016.0
20260503050943 23 84 11.3 24.1 0.00 0.00 0.00 77 1015.8
20260503050441 23 104 14.5 25.7 0.00 0.00 0.00 77 1015.7
20260503045947 23 138 12.9 25.7 0.00 0.00 0.00 79 1015.6
20260503045941 23 73 0.0 25.7 0.00 0.00 0.00 79 1015.7
20260503044942 23 94 9.7 25.7 0.00 0.00 0.00 79 1015.5
20260503044443 23 81 11.3 38.6 0.00 0.00 0.00 80 1015.5
20260503043941 23 40 11.3 38.6 0.00 0.00 0.00 80 1015.2
20260503043442 23 103 14.5 25.7 0.00 0.00 0.00 79 1015.4
20260503042942 23 98 20.9 24.1 0.00 0.00 0.00 78 1015.1
20260503042445 23 70 11.3 24.1 0.00 0.00 0.00 78 1015.2
20260503041941 23 112 11.3 22.5 0.00 0.00 0.00 77 1015.0
20260503041442 23 102 6.4 24.1 0.00 0.00 0.00 77 1015.1
20260503040941 23 128 8.0 24.1 0.00 0.00 0.00 77 1015.1
20260503040440 23 104 16.1 24.1 0.00 0.00 0.00 77 1015.2
20260503035940 24 122 11.3 24.1 0.00 0.00 0.00 75 1015.1
20260503035442 24 105 8.0 24.1 0.00 0.00 0.00 76 1015.2
20260503034940 24 103 9.7 24.1 0.00 0.00 0.00 76 1015.0
20260503034441 24 84 14.5 24.1 0.00 0.00 0.00 74 1015.0
20260503033941 24 86 9.7 22.5 0.00 0.00 0.00 75 1014.8
20260503033441 24 72 16.1 22.5 0.00 0.00 0.00 75 1014.9
20260503032941 24 120 6.4 22.5 0.00 0.00 0.00 75 1015.0
20260503032442 24 108 12.9 22.5 0.00 0.00 0.00 75 1015.0
20260503032211 24 87 9.7 22.5 0.00 0.00 0.00 75 1014.8
20260503031440 24 88 9.7 22.5 0.00 0.00 0.00 76 1014.7
20260503030940 25 76 16.1 22.5 0.00 0.00 0.00 75 1015.0
20260503030712 25 70 4.8 25.7 0.00 0.00 0.00 74 1014.8
20260503030212 25 110 3.2 25.7 0.00 0.00 0.00 73 1015.0
20260503025712 25 117 9.7 24.1 0.00 0.00 0.00 73 1014.9
20260503024941 25 88 17.7 24.1 0.00 0.00 0.00 72 1015.0
20260503024442 25 69 14.5 24.1 0.00 0.00 0.00 72 1015.1
20260503023940 25 128 14.5 24.1 0.00 0.00 0.00 72 1015.0
20260503023441 25 102 4.8 24.1 0.00 0.00 0.00 73 1014.9
20260503022942 25 99 11.3 24.1 0.00 0.00 0.00 73 1014.9
20260503022440 25 90 12.9 22.5 0.00 0.00 0.00 74 1014.7
20260503021941 25 91 12.9 22.5 0.00 0.00 0.00 73 1014.9
20260503021442 25 98 8.0 24.1 0.00 0.00 0.00 73 1014.5
20260503020941 25 132 6.4 24.1 0.00 0.00 0.00 74 1014.9
20260503020441 25 120 6.4 27.4 0.00 0.00 0.00 74 1014.8
20260503020211 25 96 8.0 27.4 0.00 0.00 0.00 74 1014.5
20260503015711 25 96 9.7 27.4 0.00 0.00 0.00 74 1014.7
20260503014941 25 76 12.9 27.4 0.00 0.00 0.00 74 1014.5
20260503014711 25 78 8.0 27.4 0.00 0.00 0.00 75 1014.7
20260503013929 25 91 6.4 32.2 0.00 0.00 0.00 74 1014.7
20260503013428 25 72 11.3 32.2 0.00 0.00 0.00 72 1014.3
20260503012929 25 93 14.5 32.2 0.00 0.00 0.00 71 1014.5
20260503012428 25 78 12.9 32.2 0.00 0.00 0.00 74 1014.4
20260503011928 25 104 14.5 32.2 0.00 0.00 0.00 75 1014.5
20260503011428 25 110 6.4 32.2 0.00 0.00 0.00 75 1014.5
20260503010928 25 127 17.7 33.8 0.00 0.00 0.00 74 1014.6
20260503010647 25 69 17.7 33.8 0.00 0.00 0.00 73 1014.6
20260503010148 25 76 12.9 30.6 0.00 0.00 0.00 72 1014.8
20260503005648 25 90 12.9 30.6 0.00 0.00 0.00 74 1014.6
20260503004917 25 107 9.7 27.4 0.00 0.00 0.00 74 1015.0
20260503004417 25 68 16.1 27.4 0.00 0.00 0.00 73 1015.0
20260503003917 25 118 12.9 25.7 0.00 0.00 0.00 73 1014.8
20260503003417 26 136 12.9 25.7 0.00 0.00 0.00 71 1014.9
20260503002906 26 81 8.0 30.6 0.00 0.00 0.00 71 1014.7
20260503002637 26 54 9.7 30.6 0.00 0.00 0.00 71 1015.1
20260503001906 26 75 16.1 32.2 0.00 0.00 0.00 71 1015.2
20260503001405 26 111 14.5 32.2 0.00 0.00 0.00 73 1015.2
20260503001136 26 72 9.7 32.2 0.00 0.00 0.00 71 1015.1
20260503000407 26 48 16.1 27.4 0.00 0.00 0.00 72 1015.2
20260502235905 26 109 9.7 27.4 0.00 0.00 0.00 73 1015.3
20260502235353 26 85 14.5 27.4 0.00 0.00 0.00 71 1015.4
20260502234852 26 120 11.3 25.7 0.00 0.00 0.00 71 1015.4
20260502234624 26 68 17.7 25.7 0.00 0.00 0.00 70 1015.8
20260502233854 26 70 14.5 27.4 0.00 0.00 0.00 71 1015.8
20260502233353 26 66 16.1 25.7 0.00 0.00 0.00 70 1016.0
20260502232854 26 90 6.4 25.7 0.00 0.00 0.00 71 1016.1
20260502232352 26 87 6.4 25.7 0.00 0.00 0.00 71 1015.9
20260502231852 26 101 11.3 27.4 0.00 0.00 0.00 72 1016.2
20260502231353 26 60 17.7 30.6 0.00 0.00 0.00 71 1016.2
20260502230855 26 90 12.9 30.6 0.00 0.00 0.00 69 1016.1
20260502230353 26 88 14.5 27.4 0.00 0.00 0.00 68 1016.5
20260502225852 26 113 16.1 25.7 0.00 0.00 0.00 69 1016.5
20260502225359 26 128 17.7 30.6 0.00 0.00 0.00 70 1016.6
20260502225353 26 92 12.9 30.6 0.00 0.00 0.00 70 1016.4
20260502224623 26 63 9.7 27.4 0.00 0.00 0.00 72 1016.7
20260502223854 26 75 12.9 30.6 0.00 0.00 0.00 71 1016.8
20260502223354 26 92 9.7 30.6 0.00 0.00 0.00 71 1016.8
20260502222853 26 97 11.3 24.1 0.00 0.00 0.00 68 1016.8
20260502222401 26 59 9.7 30.6 0.00 0.00 0.00 67 1017.1
20260502222352 26 76 17.7 25.7 0.00 0.00 0.00 68 1017.1
20260502221853 26 119 17.7 30.6 0.00 0.00 0.00 65 1017.0
20260502220852 26 100 22.5 32.2 0.00 0.00 0.00 66 1017.4
20260502220623 26 81 14.5 32.2 0.00 0.00 0.00 68 1017.3
20260502220123 26 60 16.1 27.4 0.00 0.00 0.00 67 1017.2
20260502215352 26 57 14.5 27.4 0.00 0.00 0.00 68 1017.2
20260502214851 26 63 16.1 27.4 0.00 0.00 0.00 68 1017.3
20260502214623 26 98 6.4 32.2 0.00 0.00 0.00 67 1017.2
20260502213852 26 93 12.9 32.2 0.00 0.00 0.00 67 1017.4
20260502213622 26 55 12.9 25.7 0.00 0.00 0.00 66 1017.1
20260502212852 26 82 20.9 27.4 0.00 0.00 0.00 66 1017.5
20260502212352 26 117 11.3 32.2 0.00 0.00 0.00 67 1017.5
20260502211851 26 124 20.9 32.2 0.00 0.00 0.00 68 1017.6
20260502211353 26 101 17.7 30.6 0.00 0.00 0.00 68 1017.5
20260502211122 26 61 9.7 30.6 0.00 0.00 0.00 69 1017.4
20260502210622 26 104 11.3 30.6 0.00 0.00 0.00 69 1017.4
20260502205851 26 73 8.0 27.4 0.00 0.00 0.00 70 1017.4
20260502205352 26 118 17.7 27.4 0.00 0.00 0.00 66 1017.4
20260502204852 26 108 14.5 30.6 0.00 0.00 0.00 66 1017.3
20260502204352 26 117 11.3 30.6 0.00 0.00 0.00 68 1017.6
20260502203852 26 65 12.9 25.7 0.00 0.00 0.00 69 1017.3
20260502203352 26 118 8.0 32.2 0.00 0.00 0.00 69 1017.3
20260502202852 26 128 9.7 37.0 0.00 0.00 0.00 69 1017.3
20260502202351 26 83 11.3 37.0 0.00 0.00 0.00 69 1017.5
20260502201851 26 102 14.5 27.4 0.00 0.00 0.00 70 1017.3
20260502201351 26 89 17.7 27.4 0.00 0.00 0.00 69 1017.6
20260502200851 26 97 9.7 27.4 0.00 0.00 0.00 70 1017.4
20260502200352 25 97 11.3 33.8 0.00 0.00 0.00 70 1017.5
20260502200123 25 115 20.9 33.8 0.00 0.00 0.00 71 1017.3
20260502195351 25 98 11.3 30.6 0.00 0.00 0.00 73 1017.4
20260502195124 25 126 11.3 30.6 0.00 0.00 0.00 70 1017.6
20260502194354 25 112 12.9 33.8 0.00 0.00 0.00 70 1017.4
20260502193852 26 113 16.1 33.8 0.00 0.00 0.00 69 1017.6
20260502193352 25 80 14.5 27.4 0.00 0.00 0.00 70 1017.5
20260502192851 26 108 6.4 25.7 0.00 0.00 0.00 71 1017.3
20260502192351 25 118 12.9 25.7 0.00 0.00 0.00 71 1017.4